Terminal Aerodrome Forecast
Issued by NWS

Home | Current Version | Previous Version | Text Only | Print | Product List | Glossary On
Versions: 1 2 3 4 5 6 7 8 9 10 11 12 13 14 15
000
FTUS45 KRIW 252300
TAFPNA
TAF
KPNA 252320Z 2600/2624 17012G18KT P6SM BKN200
     FM260200 VRB05KT P6SM SCT100 BKN200
     FM260900 VRB05KT P6SM VCSH BKN100
     FM261800 28014G24KT P6SM VCSH BKN100
      AMD LTD TO CLD VIS AND WIND=

USA.gov is the U.S. government's official web portal to all federal, state and local government web resources and services.